• In Netherlands
  • List of Countries
  • For 7 days
  • Water Temperature
  • Satellite Maps
  • Weather Map
  • Weather Widgets
  • user-avatar
    Login

    Hourly Weather Mons

    Today, 18 January, Wednesday

    Time Temperature Precipitation Wind Pressure Humidity
    00:00 -6°C° 0 mm 3 mps 776 mmHg 89%
    01:00 -6°C° 0 mm 3 mps 776 mmHg 89%
    02:00 -7°C° 0 mm 3 mps 776 mmHg 89%
    03:00 -7°C° 0 mm 3 mps 775 mmHg 89%
    04:00 -7°C° 0 mm 3 mps 776 mmHg 89%
    05:00 -7°C° 0 mm 3 mps 776 mmHg 88%
    06:00 -7°C° 0 mm 3 mps 776 mmHg 87%
    07:00 -7°C° 0 mm 3 mps 776 mmHg 83%
    08:00 -6°C° 0 mm 3 mps 776 mmHg 79%
    09:00 -6°C° 0 mm 3 mps 776 mmHg 75%
    10:00 -5°C° 0 mm 4 mps 776 mmHg 69%
    11:00 -4°C° 0 mm 4 mps 776 mmHg 64%
    12:00 -2°C° 0 mm 4 mps 775 mmHg 58%
    13:00 -2°C° 0 mm 4 mps 775 mmHg 59%
    14:00 -3°C° 0 mm 4 mps 775 mmHg 60%
    15:00 -2°C° 0 mm 3 mps 775 mmHg 62%
    16:00 -4°C° 0 mm 3 mps 775 mmHg 66%
    17:00 -5°C° 0 mm 3 mps 775 mmHg 70%
    18:00 -6°C° 0 mm 3 mps 775 mmHg 75%
    19:00 -6°C° 0 mm 3 mps 775 mmHg 74%
    20:00 -6°C° 0 mm 3 mps 775 mmHg 73%
    21:00 -5°C° 0 mm 2 mps 775 mmHg 72%
    22:00 -5°C° 0 mm 2 mps 775 mmHg 71%
    23:00 -5°C° 0 mm 2 mps 775 mmHg 70%

    Tomorrow, 19 January, Thursday

    Time Temperature Precipitation Wind Pressure Humidity
    00:00 -5°C° 0 mm 2 mps 775 mmHg 70%
    01:00 -6°C° 0 mm 3 mps 775 mmHg 69%
    02:00 -6°C° 0 mm 3 mps 775 mmHg 69%
    03:00 -6°C° 0 mm 3 mps 775 mmHg 68%
    04:00 -6°C° 0 mm 3 mps 775 mmHg 68%
    05:00 -6°C° 0 mm 3 mps 775 mmHg 67%
    06:00 -6°C° 0 mm 3 mps 775 mmHg 66%
    07:00 -6°C° 0 mm 3 mps 775 mmHg 63%
    08:00 -5°C° 0 mm 3 mps 775 mmHg 60%
    09:00 -5°C° 0 mm 3 mps 775 mmHg 57%
    10:00 -4°C° 0 mm 3 mps 775 mmHg 53%
    11:00 -1°C° 0 mm 3 mps 775 mmHg 49%
    12:00 0°C° 0 mm 3 mps 774 mmHg 45%
    13:00 0°C° 0 mm 3 mps 774 mmHg 48%
    14:00 0°C° 0 mm 3 mps 774 mmHg 50%
    15:00 0°C° 0 mm 3 mps 774 mmHg 53%
    16:00 -1°C° 0 mm 3 mps 774 mmHg 56%
    17:00 -4°C° 0 mm 3 mps 774 mmHg 60%
    18:00 -5°C° 0 mm 3 mps 774 mmHg 63%
    19:00 -5°C° 0 mm 3 mps 774 mmHg 61%
    20:00 -5°C° 0 mm 3 mps 774 mmHg 59%
    21:00 -5°C° 0 mm 3 mps 774 mmHg 57%
    22:00 -5°C° 0 mm 3 mps 774 mmHg 57%
    23:00 -5°C° 0 mm 3 mps 774 mmHg 57%

    Day after tomorrow, 20 January, Friday

    Time Temperature Precipitation Wind Pressure Humidity
    00:00 -5°C° 0 mm 3 mps 774 mmHg 57%
    01:00 -5°C° 0 mm 3 mps 773 mmHg 58%
    02:00 -4°C° 0 mm 2 mps 773 mmHg 60%
    03:00 -4°C° 0 mm 2 mps 773 mmHg 61%
    04:00 -4°C° 0 mm 2 mps 773 mmHg 62%
    05:00 -3°C° 0 mm 2 mps 773 mmHg 63%
    06:00 -3°C° 0 mm 2 mps 772 mmHg 65%
    07:00 -4°C° 0 mm 3 mps 772 mmHg 64%
    08:00 -2°C° 0 mm 3 mps 772 mmHg 64%
    09:00 -2°C° 0 mm 3 mps 772 mmHg 64%
    10:00 0°C° 0 mm 3 mps 772 mmHg 63%
    11:00 +1°C° 0 mm 3 mps 772 mmHg 62%
    12:00 +2°C° 0 mm 3 mps 772 mmHg 61%
    13:00 +2°C° 0 mm 3 mps 771 mmHg 66%
    14:00 +2°C° 0 mm 3 mps 771 mmHg 71%
    15:00 +2°C° 0 mm 2 mps 771 mmHg 76%
    16:00 0°C° 0 mm 3 mps 771 mmHg 81%
    17:00 -1°C° 0 mm 3 mps 771 mmHg 86%
    18:00 -2°C° 0 mm 3 mps 771 mmHg 91%
    19:00 -2°C° 0 mm 3 mps 771 mmHg 90%
    20:00 -3°C° 0 mm 2 mps 771 mmHg 89%
    21:00 -3°C° 0 mm 2 mps 771 mmHg 88%
    22:00 -3°C° 0 mm 2 mps 771 mmHg 87%
    23:00 -3°C° 0 mm 2 mps 771 mmHg 85%

    21 January, Saturday

    Time Temperature Precipitation Wind Pressure Humidity
    00:00 -4°C° 0 mm 2 mps 771 mmHg 83%
    01:00 -4°C° 0 mm 2 mps 770 mmHg 81%
    02:00 -4°C° 0 mm 2 mps 770 mmHg 79%
    03:00 -4°C° 0 mm 2 mps 770 mmHg 77%
    04:00 -4°C° 0 mm 2 mps 770 mmHg 76%
    05:00 -5°C° 0 mm 2 mps 770 mmHg 74%
    06:00 -5°C° 0 mm 2 mps 770 mmHg 72%
    07:00 -4°C° 0 mm 2 mps 770 mmHg 70%
    08:00 -4°C° 0 mm 2 mps 770 mmHg 67%
    09:00 -3°C° 0 mm 2 mps 770 mmHg 64%
    10:00 -2°C° 0 mm 2 mps 769 mmHg 60%
    11:00 -1°C° 0 mm 2 mps 769 mmHg 55%
    12:00 +1°C° 0 mm 2 mps 769 mmHg 51%
    13:00 +1°C° 0 mm 2 mps 768 mmHg 54%
    14:00 +1°C° 0 mm 2 mps 768 mmHg 57%
    15:00 +1°C° 0 mm 2 mps 768 mmHg 60%
    16:00 -2°C° 0 mm 2 mps 768 mmHg 64%
    17:00 -3°C° 0 mm 2 mps 768 mmHg 69%
    18:00 -4°C° 0 mm 2 mps 768 mmHg 74%
    19:00 -4°C° 0 mm 2 mps 768 mmHg 74%
    20:00 -4°C° 0 mm 2 mps 768 mmHg 73%
    21:00 -5°C° 0 mm 2 mps 768 mmHg 73%
    22:00 -5°C° 0 mm 2 mps 768 mmHg 74%
    23:00 -5°C° 0 mm 2 mps 768 mmHg 74%

    22 January, Sunday

    Time Temperature Precipitation Wind Pressure Humidity
    00:00 -5°C° 0 mm 2 mps 768 mmHg 74%
    01:00 -5°C° 0 mm 2 mps 768 mmHg 74%
    02:00 -5°C° 0 mm 2 mps 768 mmHg 74%
    03:00 -5°C° 0 mm 2 mps 767 mmHg 74%
    04:00 -5°C° 0 mm 2 mps 767 mmHg 72%
    05:00 -5°C° 0 mm 2 mps 767 mmHg 71%
    06:00 -5°C° 0 mm 2 mps 767 mmHg 70%
    07:00 -5°C° 0 mm 2 mps 768 mmHg 66%
    08:00 -4°C° 0 mm 2 mps 768 mmHg 62%
    09:00 -3°C° 0 mm 2 mps 768 mmHg 58%
    10:00 0°C° 0 mm 1 mps 768 mmHg 54%
    11:00 +2°C° 0 mm 1 mps 768 mmHg 50%
    12:00 +3°C° 0 mm 0 mps 768 mmHg 45%
    13:00 +3°C° 0 mm 1 mps 768 mmHg 49%
    14:00 +3°C° 0 mm 1 mps 767 mmHg 53%
    15:00 +2°C° 0 mm 1 mps 767 mmHg 57%
    16:00 +1°C° 0 mm 1 mps 767 mmHg 59%
    17:00 -2°C° 0 mm 2 mps 767 mmHg 60%
    18:00 -3°C° 0 mm 2 mps 767 mmHg 61%
    19:00 -3°C° 0 mm 2 mps 768 mmHg 59%
    20:00 -3°C° 0 mm 2 mps 768 mmHg 58%
    21:00 -3°C° 0 mm 2 mps 768 mmHg 56%
    22:00 -3°C° 0 mm 2 mps 768 mmHg 56%
    23:00 -3°C° 0 mm 2 mps 768 mmHg 55%

    23 January, Monday

    Time Temperature Precipitation Wind Pressure Humidity
    00:00 -4°C° 0 mm 2 mps 768 mmHg 54%
    01:00 -4°C° 0 mm 2 mps 768 mmHg 56%
    02:00 -4°C° 0 mm 2 mps 768 mmHg 57%
    03:00 -4°C° 0 mm 2 mps 768 mmHg 58%
    04:00 -4°C° 0 mm 2 mps 768 mmHg 60%
    05:00 -4°C° 0 mm 2 mps 768 mmHg 62%
    06:00 -4°C° 0 mm 2 mps 768 mmHg 64%
    07:00 -4°C° 0 mm 2 mps 768 mmHg 63%
    08:00 -3°C° 0 mm 2 mps 768 mmHg 62%
    09:00 -2°C° 0 mm 2 mps 769 mmHg 60%
    10:00 -1°C° 0 mm 2 mps 769 mmHg 60%
    11:00 +1°C° 0 mm 2 mps 769 mmHg 59%
    12:00 +3°C° 0 mm 2 mps 768 mmHg 58%
    13:00 +3°C° 0 mm 2 mps 768 mmHg 63%
    14:00 +2°C° 0 mm 2 mps 768 mmHg 68%
    15:00 +2°C° 0 mm 2 mps 768 mmHg 73%
    16:00 +1°C° 0 mm 2 mps 768 mmHg 78%
    17:00 -2°C° 0 mm 2 mps 769 mmHg 83%
    18:00 -3°C° 0 mm 2 mps 769 mmHg 88%
    19:00 -3°C° 0 mm 2 mps 769 mmHg 89%
    20:00 -3°C° 0 mm 2 mps 769 mmHg 90%
    21:00 -3°C° 0 mm 2 mps 769 mmHg 90%
    22:00 -3°C° 0 mm 2 mps 770 mmHg 91%
    23:00 -3°C° 0 mm 2 mps 770 mmHg 91%
    Show more